Year,Month,Day,Hour,Minute,Value (Times are PST for temperature in C)
2010,08,15,00,00,21.80
2010,08,15,00,01,21.60
2010,08,15,00,02,21.50
2010,08,15,00,03,21.30
2010,08,15,00,04,21.30
2010,08,15,00,05,21.20
2010,08,15,00,06,21.20
2010,08,15,00,07,21.10
2010,08,15,00,08,21.10
2010,08,15,00,09,21.10
2010,08,15,00,10,21.10
2010,08,15,00,11,21.10
2010,08,15,00,12,21.10
2010,08,15,00,13,21.10
2010,08,15,00,14,21.10
2010,08,15,00,15,21.10
2010,08,15,00,16,21.10
2010,08,15,00,17,21.10
2010,08,15,00,18,21.10
2010,08,15,00,19,21.20
2010,08,15,00,20,21.30
2010,08,15,00,21,21.40
2010,08,15,00,22,21.40
2010,08,15,00,23,21.50
2010,08,15,00,24,21.60
2010,08,15,00,25,21.60
2010,08,15,00,26,21.60
2010,08,15,00,27,21.60
2010,08,15,00,28,21.60
2010,08,15,00,29,21.60
2010,08,15,00,30,21.60
2010,08,15,00,31,21.60
2010,08,15,00,32,21.60
2010,08,15,00,33,21.60
2010,08,15,00,34,21.60
2010,08,15,00,35,21.60
2010,08,15,00,36,21.50
2010,08,15,00,37,21.40
2010,08,15,00,38,21.30
2010,08,15,00,39,21.10
2010,08,15,00,40,21.00
2010,08,15,00,41,20.80
2010,08,15,00,42,20.70
2010,08,15,00,43,20.60
2010,08,15,00,44,20.50
2010,08,15,00,45,20.50
2010,08,15,00,46,20.50
2010,08,15,00,47,20.50
2010,08,15,00,48,20.50
2010,08,15,00,49,20.40
2010,08,15,00,50,20.40
2010,08,15,00,51,20.40
2010,08,15,00,52,20.40
2010,08,15,00,53,20.50
2010,08,15,00,54,20.50
2010,08,15,00,55,20.60
2010,08,15,00,56,20.70
2010,08,15,00,57,20.80
2010,08,15,00,58,21.00
2010,08,15,00,59,21.00
2010,08,15,01,00,21.20
2010,08,15,01,01,21.30
2010,08,15,01,02,21.30
2010,08,15,01,03,21.40
2010,08,15,01,04,21.50
2010,08,15,01,05,21.60
2010,08,15,01,06,21.60
2010,08,15,01,07,21.70
2010,08,15,01,08,21.70
2010,08,15,01,09,21.60
2010,08,15,01,10,21.60
2010,08,15,01,11,21.60
2010,08,15,01,12,21.50
2010,08,15,01,13,21.30
2010,08,15,01,14,21.20
2010,08,15,01,15,20.90
2010,08,15,01,16,20.60
2010,08,15,01,17,20.30
2010,08,15,01,18,20.10
2010,08,15,01,19,19.90
2010,08,15,01,20,19.70
2010,08,15,01,21,19.60
2010,08,15,01,22,19.50
2010,08,15,01,23,19.40
2010,08,15,01,24,19.30
2010,08,15,01,25,19.20
2010,08,15,01,26,19.10
2010,08,15,01,27,19.10
2010,08,15,01,28,19.00
2010,08,15,01,29,18.90
2010,08,15,01,30,18.90
2010,08,15,01,31,18.80
2010,08,15,01,32,18.70
2010,08,15,01,33,18.70
2010,08,15,01,34,18.60
2010,08,15,01,35,18.60
2010,08,15,01,36,18.50
2010,08,15,01,37,18.40
2010,08,15,01,38,18.40
2010,08,15,01,39,18.30
2010,08,15,01,40,18.30
2010,08,15,01,41,18.30
2010,08,15,01,42,18.20
2010,08,15,01,43,18.30
2010,08,15,01,44,18.30
2010,08,15,01,45,18.30
2010,08,15,01,46,18.30
2010,08,15,01,47,18.30
2010,08,15,01,48,18.30
2010,08,15,01,49,18.30
2010,08,15,01,50,18.30
2010,08,15,01,51,18.20
2010,08,15,01,52,18.20
2010,08,15,01,53,18.20
2010,08,15,01,54,18.20
2010,08,15,01,55,18.20
2010,08,15,01,56,18.20
2010,08,15,01,57,18.10
2010,08,15,01,58,18.10
2010,08,15,01,59,18.10
2010,08,15,02,00,18.00
2010,08,15,02,01,17.90
2010,08,15,02,02,17.90
2010,08,15,02,03,17.90
2010,08,15,02,04,17.90
2010,08,15,02,05,17.80
2010,08,15,02,06,17.80
2010,08,15,02,07,17.80
2010,08,15,02,08,17.70
2010,08,15,02,09,17.70
2010,08,15,02,10,17.60
2010,08,15,02,11,17.60
2010,08,15,02,12,17.60
2010,08,15,02,13,17.50
2010,08,15,02,14,17.50
2010,08,15,02,15,17.50
2010,08,15,02,16,17.40
2010,08,15,02,17,17.40
2010,08,15,02,18,17.40
2010,08,15,02,19,17.40
2010,08,15,02,20,17.40
2010,08,15,02,21,17.40
2010,08,15,02,22,17.40
2010,08,15,02,23,17.40
2010,08,15,02,24,17.40
2010,08,15,02,25,17.40
2010,08,15,02,26,17.40
2010,08,15,02,27,17.40
2010,08,15,02,28,17.40
2010,08,15,02,29,17.40
2010,08,15,02,30,17.30
2010,08,15,02,31,17.30
2010,08,15,02,32,17.30
2010,08,15,02,33,17.30
2010,08,15,02,34,17.30
2010,08,15,02,35,17.30
2010,08,15,02,36,17.30
2010,08,15,02,37,17.30
2010,08,15,02,38,17.30
2010,08,15,02,39,17.30
2010,08,15,02,40,17.40
2010,08,15,02,41,17.40
2010,08,15,02,42,17.50
2010,08,15,02,43,17.60
2010,08,15,02,44,17.60
2010,08,15,02,45,17.70
2010,08,15,02,46,17.70
2010,08,15,02,47,17.80
2010,08,15,02,48,17.80
2010,08,15,02,49,17.80
2010,08,15,02,50,17.80
2010,08,15,02,51,17.80
2010,08,15,02,52,17.80
2010,08,15,02,53,17.90
2010,08,15,02,54,17.90
2010,08,15,02,55,17.90
2010,08,15,02,56,17.90
2010,08,15,02,57,17.90
2010,08,15,02,58,17.90
2010,08,15,02,59,18.00
2010,08,15,03,00,18.10
2010,08,15,03,01,18.10
2010,08,15,03,02,18.20
2010,08,15,03,03,18.40
2010,08,15,03,04,18.50
2010,08,15,03,05,18.60
2010,08,15,03,06,18.80
2010,08,15,03,07,19.00
2010,08,15,03,08,19.10
2010,08,15,03,09,19.20
2010,08,15,03,10,19.30
2010,08,15,03,11,19.30
2010,08,15,03,12,19.40
2010,08,15,03,13,19.50
2010,08,15,03,14,19.60
2010,08,15,03,15,19.70
2010,08,15,03,16,19.80
2010,08,15,03,17,19.90
2010,08,15,03,18,19.90
2010,08,15,03,19,19.90
2010,08,15,03,20,19.90
2010,08,15,03,21,19.90
2010,08,15,03,22,19.90
2010,08,15,03,23,19.90
2010,08,15,03,24,19.90
2010,08,15,03,25,19.90
2010,08,15,03,26,19.90
2010,08,15,03,27,19.90
2010,08,15,03,28,19.90
2010,08,15,03,29,19.90
2010,08,15,03,30,19.90
2010,08,15,03,31,19.90
2010,08,15,03,32,19.90
2010,08,15,03,33,19.90
2010,08,15,03,34,19.90
2010,08,15,03,35,19.90
2010,08,15,03,36,19.90
2010,08,15,03,37,19.90
2010,08,15,03,38,19.90
2010,08,15,03,39,19.90
2010,08,15,03,40,19.90
2010,08,15,03,41,19.90
2010,08,15,03,42,19.90
2010,08,15,03,43,19.90
2010,08,15,03,44,19.80
2010,08,15,03,45,19.80
2010,08,15,03,46,19.70
2010,08,15,03,47,19.60
2010,08,15,03,48,19.60
2010,08,15,03,49,19.60
2010,08,15,03,50,19.70
2010,08,15,03,51,19.70
2010,08,15,03,52,19.80
2010,08,15,03,53,19.80
2010,08,15,03,54,19.80
2010,08,15,03,55,19.80
2010,08,15,03,56,19.80
2010,08,15,03,57,19.80
2010,08,15,03,58,19.80
2010,08,15,03,59,19.80
2010,08,15,04,00,19.80
2010,08,15,04,01,19.90
2010,08,15,04,02,19.90
2010,08,15,04,03,19.80
2010,08,15,04,04,19.70
2010,08,15,04,05,19.60
2010,08,15,04,06,19.50
2010,08,15,04,07,19.40
2010,08,15,04,08,19.30
2010,08,15,04,09,19.20
2010,08,15,04,10,19.20
2010,08,15,04,11,19.20
2010,08,15,04,12,19.20
2010,08,15,04,13,19.00
2010,08,15,04,14,18.90
2010,08,15,04,15,18.80
2010,08,15,04,16,18.70
2010,08,15,04,17,18.60
2010,08,15,04,18,18.60
2010,08,15,04,19,18.50
2010,08,15,04,20,18.50
2010,08,15,04,21,18.40
2010,08,15,04,22,18.40
2010,08,15,04,23,18.40
2010,08,15,04,24,18.40
2010,08,15,04,25,18.30
2010,08,15,04,26,18.30
2010,08,15,04,27,18.30
2010,08,15,04,28,18.30
2010,08,15,04,29,18.30
2010,08,15,04,30,18.20
2010,08,15,04,31,18.20
2010,08,15,04,32,18.10
2010,08,15,04,33,18.00
2010,08,15,04,34,17.90
2010,08,15,04,35,17.90
2010,08,15,04,36,17.80
2010,08,15,04,37,17.80
2010,08,15,04,38,17.70
2010,08,15,04,39,17.70
2010,08,15,04,40,17.60
2010,08,15,04,41,17.50
2010,08,15,04,42,17.50
2010,08,15,04,43,17.50
2010,08,15,04,44,17.40
2010,08,15,04,45,17.40
2010,08,15,04,46,17.30
2010,08,15,04,47,17.30
2010,08,15,04,48,17.20
2010,08,15,04,49,17.20
2010,08,15,04,50,17.10
2010,08,15,04,51,17.00
2010,08,15,04,52,16.90
2010,08,15,04,53,16.90
2010,08,15,04,54,16.80
2010,08,15,04,55,16.80
2010,08,15,04,56,16.70
2010,08,15,04,57,16.70
2010,08,15,04,58,16.60
2010,08,15,04,59,16.60
2010,08,15,05,00,16.50
2010,08,15,05,01,16.40
2010,08,15,05,02,16.40
2010,08,15,05,03,16.30
2010,08,15,05,04,16.20
2010,08,15,05,05,16.10
2010,08,15,05,06,16.00
2010,08,15,05,07,15.90
2010,08,15,05,08,15.70
2010,08,15,05,09,15.60
2010,08,15,05,10,15.60
2010,08,15,05,11,15.50
2010,08,15,05,12,15.50
2010,08,15,05,13,15.40
2010,08,15,05,14,15.40
2010,08,15,05,15,15.30
2010,08,15,05,16,15.30
2010,08,15,05,17,15.30
2010,08,15,05,18,15.30
2010,08,15,05,19,15.30
2010,08,15,05,20,15.30
2010,08,15,05,21,15.20
2010,08,15,05,22,15.20
2010,08,15,05,23,15.20
2010,08,15,05,24,15.10
2010,08,15,05,25,15.10
2010,08,15,05,26,15.10
2010,08,15,05,27,15.00
2010,08,15,05,28,15.00
2010,08,15,05,29,15.00
2010,08,15,05,30,15.00
2010,08,15,05,31,15.00
2010,08,15,05,32,15.00
2010,08,15,05,33,15.00
2010,08,15,05,34,15.00
2010,08,15,05,35,15.00
2010,08,15,05,36,15.00
2010,08,15,05,37,15.10
2010,08,15,05,38,15.10
2010,08,15,05,39,15.10
2010,08,15,05,40,15.10
2010,08,15,05,41,15.20
2010,08,15,05,42,15.20
2010,08,15,05,43,15.20
2010,08,15,05,44,15.30
2010,08,15,05,45,15.30
2010,08,15,05,46,15.30
2010,08,15,05,47,15.30
2010,08,15,05,48,15.40
2010,08,15,05,49,15.40
2010,08,15,05,50,15.40
2010,08,15,05,51,15.40
2010,08,15,05,52,15.50
2010,08,15,05,53,15.50
2010,08,15,05,54,15.50
2010,08,15,05,55,15.50
2010,08,15,05,56,15.50
2010,08,15,05,57,15.50
2010,08,15,05,58,15.50
2010,08,15,05,59,15.50
2010,08,15,06,00,15.60
2010,08,15,06,01,15.60
2010,08,15,06,02,15.60
2010,08,15,06,03,15.70
2010,08,15,06,04,15.70
2010,08,15,06,05,15.70
2010,08,15,06,06,15.70
2010,08,15,06,07,15.80
2010,08,15,06,08,15.80
2010,08,15,06,09,15.80
2010,08,15,06,10,15.90
2010,08,15,06,11,16.00
2010,08,15,06,12,16.10
2010,08,15,06,13,16.20
2010,08,15,06,14,16.30
2010,08,15,06,15,16.30
2010,08,15,06,16,16.30
2010,08,15,06,17,16.40
2010,08,15,06,18,16.40
2010,08,15,06,19,16.40
2010,08,15,06,20,16.40
2010,08,15,06,21,16.40
2010,08,15,06,22,16.40
2010,08,15,06,23,16.40
2010,08,15,06,24,16.30
2010,08,15,06,25,16.30
2010,08,15,06,26,16.30
2010,08,15,06,27,16.30
2010,08,15,06,28,16.30
2010,08,15,06,29,16.30
2010,08,15,06,30,16.30
2010,08,15,06,31,16.30
2010,08,15,06,32,16.30
2010,08,15,06,33,16.20
2010,08,15,06,34,16.20
2010,08,15,06,35,16.20
2010,08,15,06,36,16.20
2010,08,15,06,37,16.20
2010,08,15,06,38,16.20
2010,08,15,06,39,16.20
2010,08,15,06,40,16.20
2010,08,15,06,41,16.10
2010,08,15,06,42,16.10
2010,08,15,06,43,16.10
2010,08,15,06,44,16.10
2010,08,15,06,45,16.10
2010,08,15,06,46,16.10
2010,08,15,06,47,16.10
2010,08,15,06,48,16.20
2010,08,15,06,49,16.20
2010,08,15,06,50,16.30
2010,08,15,06,51,16.30
2010,08,15,06,52,16.30
2010,08,15,06,53,16.30
2010,08,15,06,54,16.30
2010,08,15,06,55,16.30
2010,08,15,06,56,16.20
2010,08,15,06,57,16.20
2010,08,15,06,58,16.10
2010,08,15,06,59,16.10
2010,08,15,07,00,16.00
2010,08,15,07,01,15.90
2010,08,15,07,02,15.90
2010,08,15,07,03,15.90
2010,08,15,07,04,15.90
2010,08,15,07,05,15.90
2010,08,15,07,06,16.00
2010,08,15,07,07,16.10
2010,08,15,07,08,16.10
2010,08,15,07,09,16.10
2010,08,15,07,10,16.10
2010,08,15,07,11,16.10
2010,08,15,07,12,16.20
2010,08,15,07,13,16.20
2010,08,15,07,14,16.30
2010,08,15,07,15,16.30
2010,08,15,07,16,16.50
2010,08,15,07,17,16.60
2010,08,15,07,18,16.70
2010,08,15,07,19,16.90
2010,08,15,07,20,17.10
2010,08,15,07,21,17.20
2010,08,15,07,22,17.40
2010,08,15,07,23,17.50
2010,08,15,07,24,17.50
2010,08,15,07,25,17.50
2010,08,15,07,26,17.40
2010,08,15,07,27,17.50
2010,08,15,07,28,17.50
2010,08,15,07,29,17.60
2010,08,15,07,30,17.70
2010,08,15,07,31,17.80
2010,08,15,07,32,17.80
2010,08,15,07,33,17.90
2010,08,15,07,34,18.10
2010,08,15,07,35,18.20
2010,08,15,07,36,18.40
2010,08,15,07,37,18.50
2010,08,15,07,38,18.50
2010,08,15,07,39,18.60
2010,08,15,07,40,18.70
2010,08,15,07,41,18.80
2010,08,15,07,42,18.90
2010,08,15,07,43,19.00
2010,08,15,07,44,19.10
2010,08,15,07,45,19.20
2010,08,15,07,46,19.30
2010,08,15,07,47,19.50
2010,08,15,07,48,19.60
2010,08,15,07,49,19.70
2010,08,15,07,50,19.70
2010,08,15,07,51,19.80
2010,08,15,07,52,19.90
2010,08,15,07,53,19.90
2010,08,15,07,54,19.90
2010,08,15,07,55,20.00
2010,08,15,07,56,20.10
2010,08,15,07,57,20.10
2010,08,15,07,58,20.10
2010,08,15,07,59,20.10
2010,08,15,08,00,20.20
2010,08,15,08,01,20.20
2010,08,15,08,02,20.20
2010,08,15,08,03,20.20
2010,08,15,08,04,20.30
2010,08,15,08,05,20.30
2010,08,15,08,06,20.40
2010,08,15,08,07,20.50
2010,08,15,08,08,20.50
2010,08,15,08,09,20.70
2010,08,15,08,10,20.70
2010,08,15,08,11,20.80
2010,08,15,08,12,20.90
2010,08,15,08,13,21.10
2010,08,15,08,14,21.20
2010,08,15,08,15,21.30
2010,08,15,08,16,21.30
2010,08,15,08,17,21.40
2010,08,15,08,18,21.50
2010,08,15,08,19,21.60
2010,08,15,08,20,21.60
2010,08,15,08,21,21.50
2010,08,15,08,22,21.40
2010,08,15,08,23,21.30
2010,08,15,08,24,21.20
2010,08,15,08,25,21.00
2010,08,15,08,26,20.70
2010,08,15,08,27,20.50
2010,08,15,08,28,20.40
2010,08,15,08,29,20.20
2010,08,15,08,30,20.20
2010,08,15,08,31,20.10
2010,08,15,08,32,20.10
2010,08,15,08,33,19.90
2010,08,15,08,34,19.90
2010,08,15,08,35,19.70
2010,08,15,08,36,19.40
2010,08,15,08,37,19.30
2010,08,15,08,38,19.10
2010,08,15,08,39,18.90
2010,08,15,08,40,18.70
2010,08,15,08,41,18.60
2010,08,15,08,42,18.50
2010,08,15,08,43,18.40
2010,08,15,08,44,18.30
2010,08,15,08,45,18.30
2010,08,15,08,46,18.20
2010,08,15,08,47,18.10
2010,08,15,08,48,18.10
2010,08,15,08,49,17.90
2010,08,15,08,50,17.90
2010,08,15,08,51,17.90
2010,08,15,08,52,17.80
2010,08,15,08,53,17.80
2010,08,15,08,54,17.80
2010,08,15,08,55,17.80
2010,08,15,08,56,17.70
2010,08,15,08,57,17.60
2010,08,15,08,58,17.40
2010,08,15,08,59,17.30
2010,08,15,09,00,17.10
2010,08,15,09,01,17.00
2010,08,15,09,02,16.90
2010,08,15,09,03,16.80
2010,08,15,09,04,16.70
2010,08,15,09,05,16.70
2010,08,15,09,06,16.60
2010,08,15,09,07,16.60
2010,08,15,09,08,16.70
2010,08,15,09,09,16.60
2010,08,15,09,10,16.60
2010,08,15,09,11,16.70
2010,08,15,09,12,16.70
2010,08,15,09,13,16.70
2010,08,15,09,14,16.70
2010,08,15,09,15,16.70
2010,08,15,09,16,16.70
2010,08,15,09,17,16.70
2010,08,15,09,18,16.70
2010,08,15,09,19,16.70
2010,08,15,09,20,16.80
2010,08,15,09,21,16.80
2010,08,15,09,22,16.90
2010,08,15,09,23,17.00
2010,08,15,09,24,17.00
2010,08,15,09,25,17.10
2010,08,15,09,26,17.20
2010,08,15,09,27,17.30
2010,08,15,09,28,17.30
2010,08,15,09,29,17.40
2010,08,15,09,30,17.40
2010,08,15,09,31,17.50
2010,08,15,09,32,17.50
2010,08,15,09,33,17.60
2010,08,15,09,34,17.70
2010,08,15,09,35,17.80
2010,08,15,09,36,17.90
2010,08,15,09,37,18.00
2010,08,15,09,38,18.20
2010,08,15,09,39,18.30
2010,08,15,09,40,18.50
2010,08,15,09,41,18.60
2010,08,15,09,42,18.70
2010,08,15,09,43,18.80
2010,08,15,09,44,18.90
2010,08,15,09,45,18.90
2010,08,15,09,46,19.00
2010,08,15,09,47,19.10
2010,08,15,09,48,19.10
2010,08,15,09,49,19.20
2010,08,15,09,50,19.20
2010,08,15,09,51,19.20
2010,08,15,09,52,19.30
2010,08,15,09,53,19.30
2010,08,15,09,54,19.30
2010,08,15,09,55,19.30
2010,08,15,09,56,19.30
2010,08,15,09,57,19.30
2010,08,15,09,58,19.20
2010,08,15,09,59,19.00
2010,08,15,10,00,18.90
2010,08,15,10,01,18.70
2010,08,15,10,02,18.50
2010,08,15,10,03,18.30
2010,08,15,10,04,18.20
2010,08,15,10,05,18.20
2010,08,15,10,06,18.10
2010,08,15,10,07,18.10
2010,08,15,10,08,18.10
2010,08,15,10,09,18.20
2010,08,15,10,10,18.10
2010,08,15,10,11,18.00
2010,08,15,10,12,17.90
2010,08,15,10,13,17.80
2010,08,15,10,14,17.80
2010,08,15,10,15,17.80
2010,08,15,10,16,17.80
2010,08,15,10,17,17.90
2010,08,15,10,18,17.90
2010,08,15,10,19,18.00
2010,08,15,10,20,18.10
2010,08,15,10,21,18.10
2010,08,15,10,22,18.10
2010,08,15,10,23,18.00
2010,08,15,10,24,18.00
2010,08,15,10,25,18.10
2010,08,15,10,26,18.10
2010,08,15,10,27,18.10
2010,08,15,10,28,18.10
2010,08,15,10,29,18.20
2010,08,15,10,30,18.20
2010,08,15,10,31,18.20
2010,08,15,10,32,18.20
2010,08,15,10,33,18.20
2010,08,15,10,34,18.20
2010,08,15,10,35,18.20
2010,08,15,10,36,18.30
2010,08,15,10,37,18.40
2010,08,15,10,38,18.50
2010,08,15,10,39,18.60
2010,08,15,10,40,18.60
2010,08,15,10,41,18.60
2010,08,15,10,42,18.60
2010,08,15,10,43,18.60
2010,08,15,10,44,18.60
2010,08,15,10,45,18.70
2010,08,15,10,46,18.80
2010,08,15,10,47,18.90
2010,08,15,10,48,18.90
2010,08,15,10,49,19.00
2010,08,15,10,50,19.10
2010,08,15,10,51,19.20
2010,08,15,10,52,19.30
2010,08,15,10,53,19.40
2010,08,15,10,54,19.50
2010,08,15,10,55,19.50
2010,08,15,10,56,19.50
2010,08,15,10,57,19.50
2010,08,15,10,58,19.40
2010,08,15,10,59,19.30
2010,08,15,11,00,19.30
2010,08,15,11,01,19.20
2010,08,15,11,02,19.20
2010,08,15,11,03,19.30
2010,08,15,11,04,19.40
2010,08,15,11,05,19.50
2010,08,15,11,06,19.50
2010,08,15,11,07,19.60
2010,08,15,11,08,19.60
2010,08,15,11,09,19.70
2010,08,15,11,10,19.80
2010,08,15,11,11,19.80
2010,08,15,11,12,19.90
2010,08,15,11,13,19.90
2010,08,15,11,14,19.90
2010,08,15,11,15,20.10
2010,08,15,11,16,20.20
2010,08,15,11,17,20.20
2010,08,15,11,18,20.30
2010,08,15,11,19,20.40
2010,08,15,11,20,20.50
2010,08,15,11,21,20.60
2010,08,15,11,22,20.70
2010,08,15,11,23,20.80
2010,08,15,11,24,20.80
2010,08,15,11,25,20.90
2010,08,15,11,26,20.90
2010,08,15,11,27,21.00
2010,08,15,11,28,21.00
2010,08,15,11,29,21.00
2010,08,15,11,30,21.10
2010,08,15,11,31,21.20
2010,08,15,11,32,21.30
2010,08,15,11,33,21.30
2010,08,15,11,34,21.40
2010,08,15,11,35,21.50
2010,08,15,11,36,21.60
2010,08,15,11,37,21.70
2010,08,15,11,38,21.80
2010,08,15,11,39,21.90
2010,08,15,11,40,22.00
2010,08,15,11,41,22.00
2010,08,15,11,42,22.10
2010,08,15,11,43,22.10
2010,08,15,11,44,22.10
2010,08,15,11,45,22.10
2010,08,15,11,46,22.10
2010,08,15,11,47,22.20
2010,08,15,11,48,22.20
2010,08,15,11,49,22.10
2010,08,15,11,50,22.00
2010,08,15,11,51,22.00
2010,08,15,11,52,21.90
2010,08,15,11,53,21.80
2010,08,15,11,54,21.60
2010,08,15,11,55,21.30
2010,08,15,11,56,21.20
2010,08,15,11,57,21.00
2010,08,15,11,58,20.90
2010,08,15,11,59,20.80
2010,08,15,12,00,20.80
2010,08,15,12,01,20.70
2010,08,15,12,02,20.50
2010,08,15,12,03,20.40
2010,08,15,12,04,20.30
2010,08,15,12,05,20.20
2010,08,15,12,06,20.10
2010,08,15,12,07,20.00
2010,08,15,12,08,19.90
2010,08,15,12,09,19.90
2010,08,15,12,10,19.90
2010,08,15,12,11,19.90
2010,08,15,12,12,19.90
2010,08,15,12,13,20.00
2010,08,15,12,14,20.10
2010,08,15,12,15,20.20
2010,08,15,12,16,20.20
2010,08,15,12,17,20.20
2010,08,15,12,18,20.20
2010,08,15,12,19,20.20
2010,08,15,12,20,20.10
2010,08,15,12,21,20.10
2010,08,15,12,22,20.20
2010,08,15,12,23,20.20
2010,08,15,12,24,20.20
2010,08,15,12,25,20.40
2010,08,15,12,26,20.40
2010,08,15,12,27,20.50
2010,08,15,12,28,20.50
2010,08,15,12,29,20.70
2010,08,15,12,30,20.70
2010,08,15,12,31,20.60
2010,08,15,12,32,20.50
2010,08,15,12,33,20.50
2010,08,15,12,34,20.50
2010,08,15,12,35,20.50
2010,08,15,12,36,20.50
2010,08,15,12,37,20.50
2010,08,15,12,38,20.50
2010,08,15,12,39,20.50
2010,08,15,12,40,20.60
2010,08,15,12,41,20.60
2010,08,15,12,42,20.60
2010,08,15,12,43,20.60
2010,08,15,12,44,20.60
2010,08,15,12,45,20.50
2010,08,15,12,46,20.50
2010,08,15,12,47,20.50
2010,08,15,12,48,20.50
2010,08,15,12,49,20.40
2010,08,15,12,50,20.20
2010,08,15,12,51,20.20
2010,08,15,12,52,20.20
2010,08,15,12,53,20.40
2010,08,15,12,54,20.50
2010,08,15,12,55,20.60
2010,08,15,12,56,20.60
2010,08,15,12,57,20.60
2010,08,15,12,58,20.70
2010,08,15,12,59,20.70
2010,08,15,13,00,20.70
2010,08,15,13,01,20.60
2010,08,15,13,02,20.60
2010,08,15,13,03,20.50
2010,08,15,13,04,20.50
2010,08,15,13,05,20.40
2010,08,15,13,06,20.30
2010,08,15,13,07,20.20
2010,08,15,13,08,20.20
2010,08,15,13,09,20.20
2010,08,15,13,10,20.20
2010,08,15,13,11,20.10
2010,08,15,13,12,20.10
2010,08,15,13,13,20.40
2010,08,15,13,14,20.60
2010,08,15,13,15,20.80
2010,08,15,13,16,20.90
2010,08,15,13,17,20.80
2010,08,15,13,18,20.80
2010,08,15,13,19,20.90
2010,08,15,13,20,21.10
2010,08,15,13,21,21.30
2010,08,15,13,22,21.30
2010,08,15,13,23,21.50
2010,08,15,13,24,21.60
2010,08,15,13,25,21.70
2010,08,15,13,26,21.90
2010,08,15,13,27,22.00
2010,08,15,13,28,22.10
2010,08,15,13,29,22.20
2010,08,15,13,30,22.30
2010,08,15,13,31,22.30
2010,08,15,13,32,22.40
2010,08,15,13,33,22.40
2010,08,15,13,34,22.50
2010,08,15,13,35,22.60
2010,08,15,13,36,22.60
2010,08,15,13,37,22.70
2010,08,15,13,38,22.70
2010,08,15,13,39,22.90
2010,08,15,13,40,23.00
2010,08,15,13,41,23.10
2010,08,15,13,42,23.20
2010,08,15,13,43,23.30
2010,08,15,13,44,23.40
2010,08,15,13,45,23.40
2010,08,15,13,46,23.40
2010,08,15,13,47,23.40
2010,08,15,13,48,23.60
2010,08,15,13,49,23.60
2010,08,15,13,50,23.60
2010,08,15,13,51,23.60
2010,08,15,13,52,23.70
2010,08,15,13,53,23.70
2010,08,15,13,54,23.70
2010,08,15,13,55,23.60
2010,08,15,13,56,23.70
2010,08,15,13,57,23.70
2010,08,15,13,58,23.90
2010,08,15,13,59,23.90
2010,08,15,14,00,23.80
2010,08,15,14,01,23.90
2010,08,15,14,02,24.00
2010,08,15,14,03,24.10
2010,08,15,14,04,24.00
2010,08,15,14,05,23.90
2010,08,15,14,06,23.70
2010,08,15,14,07,23.70
2010,08,15,14,08,23.80
2010,08,15,14,09,23.80
2010,08,15,14,10,23.80
2010,08,15,14,11,23.90
2010,08,15,14,12,23.80
2010,08,15,14,13,23.90
2010,08,15,14,14,24.00
2010,08,15,14,15,24.10
2010,08,15,14,16,24.20
2010,08,15,14,17,24.30
2010,08,15,14,18,24.30
2010,08,15,14,19,24.40
2010,08,15,14,20,24.50
2010,08,15,14,21,24.50
2010,08,15,14,22,24.40
2010,08,15,14,23,24.40
2010,08,15,14,24,24.50
2010,08,15,14,25,24.50
2010,08,15,14,26,24.60
2010,08,15,14,27,24.60
2010,08,15,14,28,24.60
2010,08,15,14,29,24.50
2010,08,15,14,30,24.50
2010,08,15,14,31,24.40
2010,08,15,14,32,24.30
2010,08,15,14,33,24.30
2010,08,15,14,34,24.20
2010,08,15,14,35,24.10
2010,08,15,14,36,24.10
2010,08,15,14,37,24.20
2010,08,15,14,38,24.30
2010,08,15,14,39,24.30
2010,08,15,14,40,24.40
2010,08,15,14,41,24.50
2010,08,15,14,42,24.50
2010,08,15,14,43,24.50
2010,08,15,14,44,24.50
2010,08,15,14,45,24.40
2010,08,15,14,46,24.40
2010,08,15,14,47,24.40
2010,08,15,14,48,24.40
2010,08,15,14,49,24.40
2010,08,15,14,50,24.30
2010,08,15,14,51,24.30
2010,08,15,14,52,24.40
2010,08,15,14,53,24.50
2010,08,15,14,54,24.50
2010,08,15,14,55,24.50
2010,08,15,14,56,24.50
2010,08,15,14,57,24.50
2010,08,15,14,58,24.50
2010,08,15,14,59,24.50
2010,08,15,15,00,24.50
2010,08,15,15,01,24.40
2010,08,15,15,02,24.40
2010,08,15,15,03,24.40
2010,08,15,15,04,24.30
2010,08,15,15,05,24.40
2010,08,15,15,06,24.40
2010,08,15,15,07,24.40
2010,08,15,15,08,24.40
2010,08,15,15,09,24.40
2010,08,15,15,10,24.40
2010,08,15,15,11,24.30
2010,08,15,15,12,24.30
2010,08,15,15,13,24.20
2010,08,15,15,14,24.30
2010,08,15,15,15,24.30
2010,08,15,15,16,24.30
2010,08,15,15,17,24.30
2010,08,15,15,18,24.30
2010,08,15,15,19,24.30
2010,08,15,15,20,24.30
2010,08,15,15,21,24.20
2010,08,15,15,22,24.30
2010,08,15,15,23,24.40
2010,08,15,15,24,24.40
2010,08,15,15,25,24.40
2010,08,15,15,26,24.40
2010,08,15,15,27,24.40
2010,08,15,15,28,24.40
2010,08,15,15,29,24.40
2010,08,15,15,30,24.40
2010,08,15,15,31,24.40
2010,08,15,15,32,24.50
2010,08,15,15,33,24.50
2010,08,15,15,34,24.50
2010,08,15,15,35,24.60
2010,08,15,15,36,24.70
2010,08,15,15,37,24.60
2010,08,15,15,38,24.50
2010,08,15,15,39,24.50
2010,08,15,15,40,24.50
2010,08,15,15,41,24.30
2010,08,15,15,42,24.10
2010,08,15,15,43,24.00
2010,08,15,15,44,24.00
2010,08,15,15,45,24.10
2010,08,15,15,46,24.10
2010,08,15,15,47,24.10
2010,08,15,15,48,24.10
2010,08,15,15,49,24.10
2010,08,15,15,50,24.10
2010,08,15,15,51,24.20
2010,08,15,15,52,24.20
2010,08,15,15,53,24.20
2010,08,15,15,54,24.10
2010,08,15,15,55,24.00
2010,08,15,15,56,23.70
2010,08,15,15,57,23.50
2010,08,15,15,58,23.40
2010,08,15,15,59,23.30
2010,08,15,16,00,23.00
2010,08,15,16,01,22.70
2010,08,15,16,02,22.30
2010,08,15,16,03,21.80
2010,08,15,16,04,21.40
2010,08,15,16,05,20.90
2010,08,15,16,06,20.50
2010,08,15,16,07,20.30
2010,08,15,16,08,20.10
2010,08,15,16,09,19.80
2010,08,15,16,10,19.60
2010,08,15,16,11,19.40
2010,08,15,16,12,19.30
2010,08,15,16,13,19.20
2010,08,15,16,14,19.10
2010,08,15,16,15,19.10
2010,08,15,16,16,19.10
2010,08,15,16,17,19.20
2010,08,15,16,18,19.30
2010,08,15,16,19,19.40
2010,08,15,16,20,19.60
2010,08,15,16,21,19.90
2010,08,15,16,22,20.10
2010,08,15,16,23,20.30
2010,08,15,16,24,20.40
2010,08,15,16,25,20.60
2010,08,15,16,26,20.70
2010,08,15,16,27,20.90
2010,08,15,16,28,21.00
2010,08,15,16,29,21.10
2010,08,15,16,30,21.10
2010,08,15,16,31,21.10
2010,08,15,16,32,21.00
2010,08,15,16,33,21.00
2010,08,15,16,34,20.80
2010,08,15,16,35,20.70
2010,08,15,16,36,20.60
2010,08,15,16,37,20.60
2010,08,15,16,38,20.50
2010,08,15,16,39,20.50
2010,08,15,16,40,20.40
2010,08,15,16,41,20.40
2010,08,15,16,42,20.30
2010,08,15,16,43,20.20
2010,08,15,16,44,20.20
2010,08,15,16,45,20.20
2010,08,15,16,46,20.20
2010,08,15,16,47,20.30
2010,08,15,16,48,20.40
2010,08,15,16,49,20.40
2010,08,15,16,50,20.50
2010,08,15,16,51,20.70
2010,08,15,16,52,20.80
2010,08,15,16,53,21.00
2010,08,15,16,54,21.10
2010,08,15,16,55,21.30
2010,08,15,16,56,21.40
2010,08,15,16,57,21.60
2010,08,15,16,58,21.70
2010,08,15,16,59,21.90
2010,08,15,17,00,22.00
2010,08,15,17,01,22.20
2010,08,15,17,02,22.30
2010,08,15,17,03,22.50
2010,08,15,17,04,22.60
2010,08,15,17,05,22.70
2010,08,15,17,06,22.80
2010,08,15,17,07,22.90
2010,08,15,17,08,23.00
2010,08,15,17,09,23.10
2010,08,15,17,10,23.20
2010,08,15,17,11,23.20
2010,08,15,17,12,23.30
2010,08,15,17,13,23.30
2010,08,15,17,14,23.30
2010,08,15,17,15,23.30
2010,08,15,17,16,23.30
2010,08,15,17,17,23.40
2010,08,15,17,18,23.40
2010,08,15,17,19,23.40